Printer-friendly version

IAU Minor Planet Center

Minor Planet Center

MPEC 2010-E81 : 2010 EQ43

The following Minor Planet Electronic Circular may be linked-to from your own Web pages, but must not otherwise be redistributed electronically.

A form allowing access to any MPEC is at the bottom of this page.


Read MPEC 2010-E80 Read MPEC 2010-E82


M.P.E.C. 2010-E81                                Issued 2010 Mar. 15, 13:18 UT

     The Minor Planet Electronic Circulars contain information on unusual
         minor planets and routine data on comets.  They are published
   on behalf of Commission 20 of the International Astronomical Union by the
          Minor Planet Center, Smithsonian Astrophysical Observatory,
                          Cambridge, MA 02138, U.S.A.

             Prepared using the Tamkin Foundation Computer Network

                              MPC@CFA.HARVARD.EDU
       URL http://www.minorplanetcenter.org/iau/mpc.html  ISSN 1523-6714

                                   2010 EQ43

Observations:
     K10E43Q* C2010 03 12.38273 12 53 29.86 +00 28 23.1          20.9 V EE081G96
     K10E43Q  C2010 03 12.38984 12 53 28.96 +00 28 18.5          20.8 V EE081G96
     K10E43Q  C2010 03 12.39704 12 53 28.10 +00 28 12.2          21.0 V EE081G96
     K10E43Q  C2010 03 12.40412 12 53 27.16 +00 28 06.5          20.1 V EE081G96
     K10E43Q  C2010 03 14.24418 12 49 37.74 +00 02 45.8          20.9 V EE081691
     K10E43Q  C2010 03 14.26180 12 49 35.48 +00 02 31.2          20.1 V EE081691
     K10E43Q  C2010 03 14.27943 12 49 33.14 +00 02 16.3          20.4 V EE081691
     K10E43Q IC2010 03 15.06606 12 47 50.58 -00 08 52.6                 EE081J95
     K10E43Q KC2010 03 15.07248 12 47 49.79 -00 08 56.9                 EE081J95
     K10E43Q KC2010 03 15.07891 12 47 48.83 -00 09 03.0          20.0 R EE081J95
     K10E43Q  C2010 03 15.36821 12 47 10.68 -00 13 07.3          20.4 R EE081926
     K10E43Q  C2010 03 15.37197 12 47 10.18 -00 13 10.8          20.2 R EE081926
     K10E43Q  C2010 03 15.37571 12 47 09.72 -00 13 14.2          20.5 R EE081926

Observer details:
691 Steward Observatory, Kitt Peak.  Observer J. V. Scotti.  0.9-m f/3
    reflector + CCD.
926 Tenagra II Observatory.  Observers P. R. Holvorcem, M. Schwartz.  Measurer
    P. R. Holvorcem.  0.81-m f/7 Ritchey-Chretien + CCD.
G96 Mt. Lemmon Survey.  Observer S. M. Larson.  Measurers J. D. Ahern,
    E. C. Beshore, A. Boattini, G. J. Garradd, A. R. Gibbs, A. D. Grauer,
    R. E. Hill, R. A. Kowalski, S. M. Larson, R. H. McNaught.  1.5-m reflector
    + CCD.
J95 Great Shefford.  Observer P. Birtwhistle.  0.40-m f/6.0 Schmidt-Cassegrain
    + CCD.

Orbital elements:
2010 EQ43                                                Earth MOID = 0.6137 AU
Epoch 2010 Jan. 4.0 TT = JDT 2455200.5                  MPC
M 298.31349              (2000.0)            P               Q
n   0.26425143     Peri.  274.69344     +0.14527022     +0.98742374
a   2.4050521      Node     5.12683     -0.36870871     +0.11253362
e   0.4786266      Incl.   44.26984     -0.91812333     +0.11104297
P   3.73           H   18.5           G   0.15           U   9
Residuals in seconds of arc
100312 G96  0.2+  0.7-    100314 691  0.4+  0.2+    100315 926  0.2-  0.6+
100312 G96  0.1-  0.4+    100314 691  0.1-  0.1+    100315 926  0.0   0.3+
100312 G96  0.4+  0.0     100315 J95  0.2-  0.7-    100315 926  0.7+  0.1+
100312 G96  0.5-  0.0     100315 J95  0.8+  0.5+
100314 691  0.3-  0.0     100315 J95  0.7-  0.2-

Ephemeris:
2010 EQ43                a,e,i = 2.41, 0.48, 44                  q = 1.2539
Date    TT    R. A. (2000) Decl.     Delta      r     Elong.  Phase     V
2010 03 15    12 47.99   -00 07.8    1.017    1.988   162.5     8.7    20.6
2010 03 25    12 23.25   -02 41.8    0.931    1.928   177.7     1.2    19.9
2010 04 04    11 54.34   -05 35.3    0.882    1.867   165.8     7.6    20.1
2010 04 14    11 24.68   -08 35.4    0.870    1.807   149.5    16.4    20.4
2010 04 24    10 58.09   -11 29.3    0.889    1.747   134.3    24.3    20.6
2010 05 04    10 37.09   -14 11.7    0.932    1.687   120.7    30.9    20.8
2010 05 14    10 22.42   -16 44.8    0.989    1.629   109.1    35.9    21.0
2010 05 24    10 13.73   -19 15.3    1.050    1.572    99.3    39.5    21.2
2010 06 03    10 10.11   -21 49.3    1.109    1.517    91.1    42.0    21.3
2010 06 13    10 10.71   -24 32.0    1.162    1.465    84.3    43.6    21.3
2010 06 23    10 14.87   -27 27.6    1.205    1.416    78.7    44.7    21.4
2010 07 03    10 22.14   -30 39.4    1.236    1.373    74.4    45.5    21.4
2010 07 13    10 32.43   -34 09.8    1.254    1.334    71.1    46.1    21.4

Sonia Keys                   (C) Copyright 2010 MPC           M.P.E.C. 2010-E81

Read MPEC 2010-E80 Read MPEC 2010-E82


MPEC number:

Enter an
MPEC number in one of the following forms:
  • 1997-B01 (the full form)
  • J97B01 (the packed version of the full form)
  • B01 (the abbreviated form)

Valid HTML 4.01!